User: anonymous   Login
Location: Bermeries
(50.2863°N, 3.7551°E)
Time: 09:11:42
(UTC+00:00)
Language:

CZ-2C R/B - Orbit

View from above orbital plane
View from above orbital plane
View from above satellite
View from above satellite

Ground track
Ground track

The orbit data is extracted from the following two-line orbital elements,

1 31114U 07010B   24280.81074495  .00000845  00000-0  40998-3 0  9992
2 31114  98.3494  50.4597 0059299   4.6186 355.5526 14.19912981906076
Epoch (UTC): 06 October 2024 19:27:28
Eccentricity: 0.0059299
inclination: 98.3494°
perigee height: 783 km
apogee height: 868 km
right ascension of ascending node: 50.4597°
argument of perigee: 4.6186°
revolutions per day: 14.19912981
mean anomaly at epoch: 355.5526°
orbit number at epoch: 90607

The dashed part of the orbit path shows where the satellite is in the earth's shadow,  

DLR